Regional Weather Roundup
Issued by NWS

Home | Current Version | Previous Version | Graphics & Text | Print | Product List | Glossary On
Versions: 1 2 3 4 5 6 7 8 9 10 11 12 13 14 15 16 17 18 19 20 21 22 23 24 25 26 27 28 29 30 31 32 33 34 35 36 37 38 39 40 41 42 43 44 45 46 47 48 49 50
000
ASUS43 KMKX 132311
RWRWI

WISCONSIN REGIONAL WEATHER ROUNDUP
NATIONAL WEATHER SERVICE MILWAUKEE/SULLIVAN WI
600 PM CDT SUN JUL 13 2014

NOTE: "FAIR" INDICATES FEW OR NO CLOUDS BELOW 12,000 FEET WITH NO
SIGNIFICANT WEATHER AND/OR OBSTRUCTIONS TO VISIBILITY.

WIZ001-002-006>008-014>016-023>028-140000-
NORTHWEST WISCONSIN

CITY           SKY/WX    TMP DP  RH WIND       PRES   REMARKS
SUPERIOR ARPT  CLOUDY    69  48  47 NW12G18   29.83S
ASHLAND        CLOUDY    69  50  50 W10G18    29.84S
HAYWARD        PTSUNNY   70  47  43 VRB3      29.87S
SIREN          MOSUNNY   73  44  36 W16       29.88S
RICE LAKE      SUNNY     72  45  37 W13G20    29.90S
LADYSMITH      PTSUNNY   70  51  50 SW7       29.89F
EAU CLAIRE     PTSUNNY   73  49  42 W12       29.88F
MENOMONIE      PTCLDY    75  49  39 SW12      29.89S
NEW RICHMOND   MOSUNNY   73  48  42 NW7G16    29.89F
OSCEOLA        MOSUNNY   74  45  35 W13G21    29.91S
$$

WIZ003>005-009-010-017-018-140000-
NORTH CENTRAL WISCONSIN

CITY           SKY/WX    TMP DP  RH WIND       PRES   REMARKS
WOODRUFF       PTSUNNY   72  48  42 W12G22    29.87F
RHINELANDER    PTSUNNY   67  46  47 W10       29.89S
EAGLE RIVER    PTSUNNY   67  44  42 W12       29.86S
LAND O LAKES   PTSUNNY   68  44  41 W8        29.87S
PHILLIPS       CLOUDY    67  49  52 W5        29.87F
TOMAHAWK       PTSUNNY   70  47  44 W6        29.89S
MEDFORD        PTSUNNY   68  49  50 W8        29.90S
MERRILL        CLOUDY    69  48  47 W7        29.89S
$$

WIZ029-030-035-036-043>047-140000-
CENTRAL WISCONSIN

CITY           SKY/WX    TMP DP  RH WIND       PRES   REMARKS
WAUSAU         SUNNY     73  46  38 W13G20    29.88S
MOSINEE        MOSUNNY   72  46  40 W10G18    29.91S
MARSHFIELD     SUNNY     72  48  42 W10G21    29.90S
STEVENS POINT  SUNNY     72  46  39 W9G16     29.90S
WAUPACA        SUNNY     78  42  27 NW13      29.88S
WAUTOMA        SUNNY     77  47  34 NW10      29.88S
WISC RAPIDS    SUNNY     74  45  35 NW13      29.91S
CAMP DOUGLAS   SUNNY     75  51  44 W15       29.90S
$$

WIZ011>013-019>022-031-037>040-048>050-140000-
NORTHEAST WISCONSIN

CITY           SKY/WX    TMP DP  RH WIND       PRES   REMARKS
ANTIGO         PTSUNNY   69  48  47 W15       29.89F
STURGEON BAY   SUNNY     75  46  35 W9        29.86S
GREEN BAY      SUNNY     77  45  32 NW17G23   29.86R
MANITOWOC      SUNNY     77  42  28 W10       29.86R
APPLETON       SUNNY     75  43  31 NW10G18   29.88S
CLINTONVILLE   MOSUNNY   73  41  31 W14G21    29.87S
OSHKOSH        SUNNY     77  48  35 W10       29.86S
$$

WIZ032>034-041-042-053>061-140000-
SOUTHWEST WISCONSIN

CITY           SKY/WX    TMP DP  RH WIND       PRES   REMARKS
LA CROSSE      SUNNY     79  48  33 W14       29.90S
SPARTA         SUNNY     76  46  33 NW13      29.91F
VIROQUA        FAIR      74  50  43 W10G17    29.93S
BOSCOBEL       SUNNY     79  49  34 W9G20     29.91S
PRAIRIE DU CHI MOSUNNY   77  51  40 NW9       29.90F
PLATTEVILLE    FAIR      79  58  47 NW12G17   29.92S HX  80
$$

WIZ056-057-062-063-064-067-068-140000-
SOUTH CENTRAL WISCONSIN

CITY           SKY/WX    TMP DP  RH WIND       PRES   REMARKS
BARABOO/DELLS  MOSUNNY   77  53  42 NW12      29.89F
LONE ROCK      MOSUNNY   81  57  43 W13       29.89S HX  81
WATERTOWN      SUNNY     78  61  57 NW13      29.87S
MADISON        MOSUNNY   79  60  52 N9        29.88S HX  80
MIDDLETON      FAIR      79  60  51 NW6       29.89S HX  80
MONROE         SUNNY     81  55  41 W13G21    29.90R HX  80
JANESVILLE     MOSUNNY   82  61  47 W12G18    29.87F HX  83
$$

WIZ051-052-058>065-066-070>072-140000-
SOUTHEAST WISCONSIN

CITY           SKY/WX    TMP DP  RH WIND       PRES   REMARKS
MILWAUKEE      MOSUNNY   83  55  38 W12       29.85S HX  82
WAUKESHA       MOSUNNY   79  61  53 W12G23    29.87F HX  80
MILWAUKEE/TIMM MOSUNNY   81  59  47 NW12G20   29.86S HX  81
RACINE         MOSUNNY   82  58  43 W13       29.87S HX  82
BURLINGTON     SUNNY     78  63  59 W5        29.87S HX  80
KENOSHA        PTSUNNY   79  65  62 W7        29.87S HX  81
FOND DU LAC    SUNNY     77  48  35 NW10      29.87S
SHEBOYGAN      MOSUNNY   77  52  41 NW8       29.86S
WEST BEND      SUNNY     77  52  41 NW10      29.87F
JUNEAU         SUNNY     76  39  26 W10       29.89S
$$

LSZ147-162-140000-
LAKE SUPERIOR

STATION/POSITION TIME  TEMP    WIND        PRES    WAVE
                       AIR SEA DIR/SP/G            HT/PER
                 (UTC) (F)     (DEG/KT/KT) (MB)    (FT/S)
W MID LAKE BUOY  2250   48 38  230/ 10/ 12 1009.0F   2/ 4
PORT WING        2200   69     250/ 13/ 17 1010.2
SAXON HARBOR     2200          280/  6/ 14 1010.2F
$$

LMZ867-665-643>646-140000-
LAKE MICHIGAN

STATION/POSITION TIME  TEMP    WIND        PRES    WAVE
                       AIR SEA DIR/SP/G            HT/PER
                 (UTC) (F)     (DEG/KT/KT) (MB)    (FT/S)
N MID LAKE BUOY  2250   64 60  170/  6/  8 1010.0F   1/ 4
NORTHPORT PIER   2200   75      30/  2/  2 1010.2S
KEWAUNEE LAKESHO 2200   77     310/  5/ 12 1011.4S
SHEBOYGAN LAKESH 2300   78     320/ 11/ 13 1010.7F
PORT WASHINGTON  2200   80     300/  6/ 13 1011.9
MILWAUKEE LAKESH 2200   81     290/  9/ 15   N/A
S MID LAKE BUOY  2250   65 63  190/  8/ 10 1011.1F   1
KENOSHA   LAKESH 2200   82     260/ 14/ 18   N/A
$$

TC  - TEMPERATURE IN CELSIUS
VSB - VISIBILITY IN STATUTE MILES
WCI - WIND CHILL INDEX
HX  - HEAT INDEX



USA.gov is the U.S. government's official web portal to all federal, state and local government web resources and services.